Flag for Japan Weather past 2 weeks in Utsunomiya, Japan

Now
37 °F

Chilly.


Feels Like: 37 °F
Forecast: 33 / 65 °F
Wind: 2 mph from Northwest

Location: Mito

Current Time: Mar 28, 2015 at 7:39:47 AM

Latest Report: Mar 28, 2015 at 5:00 AM


Visibility: N/A

Pressure: 30.12 "Hg

Humidity: 71%

Dew point: 29 °F

Location of UtsunomiyaLocation

Historic Weather in Utsunomiya — Graph

°F

Utsunomiya temperature yesterday

Maximum temperature yesterday: 69 °F (at 3:00 PM)
Minimum temperature yesterday: 32 °F (at 5:00 AM)
Average temperature yesterday: 51 °F

Past Weeks' High & Low Weather Summary

 TemperatureHumidityPressure
High69 °F (Mar 17, 2:00 PM)98% (Mar 20, 1:00 AM)30.48 "Hg (Mar 20, 1:00 AM)
Low31 °F (Mar 26, 4:00 AM)11% (Mar 27, 3:00 PM)29.72 "Hg (Mar 19, 2:00 PM)
Average47 °F65%30.09 "Hg
* Reported Mar 13 5:00 AM — Mar 28 5:00 AM, Utsunomiya, Weather by CustomWeather, © 2015

Note: Actual official high and low records may vary slightly from our data, if they occured in-between our weather recording intervals... More about our weather records

Advertising

Utsunomiya weather history for previous 24 hours

 ConditionsComfort  
Time TempWeatherWind HumidityBarometerVisibility
5:00 AM
Sat, Mar 28
37 °FChilly.2 mph71%30.12 "HgN/A
4:00 AM38 °FChilly.3 mph72%30.12 "HgN/A
3:00 AM39 °FClear.1 mph70%30.11 "Hg19 mi
2:00 AM40 °FChilly.3 mph68%30.11 "HgN/A
1:00 AM43 °FQuite cool.2 mph64%30.14 "HgN/A
12:00 AM43 °FQuite cool.2 mph63%30.15 "HgN/A
11:00 PM
Fri, Mar 27
49 °FCool.3 mph43%30.16 "HgN/A
10:00 PM53 °FCool.2 mph49%30.18 "HgN/A
9:00 PM54 °FClear.6 mph40%30.17 "Hg19 mi
8:00 PM56 °FRefreshingly cool.6 mph29%30.16 "HgN/A
7:00 PM60 °FRefreshingly cool.6 mph18%30.14 "HgN/A
6:00 PM63 °FMild.6 mph15%30.13 "HgN/A
5:00 PM65 °FMild.10 mph14%30.13 "HgN/A
4:00 PM67 °FMild.9 mph19%30.12 "HgN/A
3:00 PM69 °FSunny.7 mph11%30.14 "Hg19 mi
2:00 PM68 °FMild.7 mph12%30.15 "HgN/A
1:00 PM66 °FMild.3 mph14%30.18 "HgN/A
11:00 AM60 °FRefreshingly cool.3 mph22%30.24 "HgN/A
10:00 AM55 °FCool.5 mph27%30.27 "HgN/A
9:00 AM48 °FSunny.2 mph39%30.30 "Hg19 mi
8:00 AM43 °FQuite cool.2 mph48%30.32 "HgN/A
7:00 AM36 °FChilly.3 mph67%30.32 "HgN/A
Weather by CustomWeather, © 2015

See weather overviewHow to use our weather pages